Home   Weather   Homburg (Saar)   Past weeks

Flag for Germany Past Weather in Homburg (Saar), Saarland, Germany — Yesterday and Last 2 Weeks

Now
28 °F

Scattered clouds.


Feels Like: 17 °F
Forecast: 18 / 25 °F
Wind: 15 mph from East

Location: Saarbruecken / Ensheim

Current Time: Jan 17, 2017 at 12:09:01 pm

Latest Report: Jan 17, 2017 at 11:20 am


Visibility: N/A

Pressure: 30.48 "Hg

Humidity: 59%

Dew Point: 16 °F

Location of Homburg (Saar)Location

Past Weather in Homburg (Saar) — Graph

°F

Homburg (Saar) Temperature Yesterday

Maximum temperature yesterday: 32 °F (at 1:50 pm)
Minimum temperature yesterday: 19 °F (at 7:20 am)
Average temperature yesterday: 25 °F

High & Low Weather Summary for the Past Weeks

 TemperatureHumidityPressure
High41 °F (Jan 11, 8:50 pm)100% (Jan 2, 10:20 am)30.69 "Hg (Jan 2, 10:20 am)
Low12 °F (Jan 7, 2:50 am)51% (Jan 5, 1:50 pm)29.27 "Hg (Jan 12, 10:50 pm)
Average30 °F89%30.15 "Hg
* Reported Jan 2 10:20 am — Jan 17 10:50 am, Homburg (Saar), Weather by CustomWeather, © 2017

Note: Actual official high and low records may vary slightly from our data, if they occured in-between our weather recording intervals... More about our weather records

Advertising

Homburg (Saar) Weather History for the Previous 24 Hours

Scroll right to see more
 ConditionsComfort  
Time TempWeatherWind HumidityBarometerVisibility
10:50 am
Tue, Jan 17
27 °FPassing clouds.13 mph69%30.48 "HgN/A
10:20 am27 °FPassing clouds.14 mph69%30.48 "HgN/A
9:50 am25 °FPartly sunny.16 mph74%30.48 "HgN/A
9:20 am25 °FPartly sunny.13 mph69%30.48 "HgN/A
8:50 am25 °FPartly sunny.13 mph74%30.48 "HgN/A
8:20 am23 °FPartly sunny.13 mph80%30.45 "HgN/A
7:50 am23 °FPassing clouds.14 mph80%30.45 "HgN/A
7:20 am23 °FOvercast.15 mph80%30.45 "HgN/A
6:50 am23 °FOvercast.18 mph80%30.45 "HgN/A
6:20 am23 °FOvercast.15 mph80%30.42 "HgN/A
5:50 am23 °FOvercast.16 mph80%30.42 "HgN/A
5:20 am23 °FPassing clouds.16 mph80%30.42 "HgN/A
4:50 am23 °FPassing clouds.13 mph80%30.42 "HgN/A
4:20 am23 °FPassing clouds.9 mph86%30.42 "HgN/A
3:50 am23 °FPassing clouds.12 mph86%30.39 "HgN/A
3:20 am21 °FLow clouds.13 mph86%30.39 "HgN/A
2:50 am21 °FPassing clouds.12 mph86%30.39 "HgN/A
2:20 am21 °FClear.9 mph86%30.39 "HgN/A
1:50 am21 °FClear.9 mph86%30.36 "HgN/A
1:20 am21 °FClear.7 mph86%30.36 "HgN/A
12:50 am21 °FClear.6 mph86%30.36 "HgN/A
12:20 am23 °FClear.8 mph80%30.36 "HgN/A
11:50 pm
Mon, Jan 16
21 °FClear.8 mph86%30.36 "HgN/A
11:20 pm21 °FClear.9 mph86%30.36 "HgN/A
10:50 pm21 °FClear.7 mph86%30.36 "Hg10 mi
10:20 pm23 °FPassing clouds.8 mph80%30.36 "HgN/A
9:50 pm23 °FClear.9 mph86%30.33 "Hg10 mi
9:20 pm23 °FClear.7 mph80%30.33 "Hg10 mi
8:50 pm23 °FClear.7 mph86%30.33 "Hg10 mi
8:20 pm25 °FPassing clouds.8 mph80%30.30 "HgN/A
7:50 pm25 °FPassing clouds.8 mph80%30.30 "HgN/A
7:20 pm25 °FPassing clouds.7 mph80%30.30 "HgN/A
6:50 pm25 °FPassing clouds.7 mph80%30.27 "HgN/A
6:20 pm25 °FPassing clouds.7 mph80%30.27 "HgN/A
5:50 pm27 °FPassing clouds.7 mph74%30.27 "HgN/A
5:20 pm27 °FPassing clouds.7 mph74%30.27 "HgN/A
4:50 pm28 °FPassing clouds.7 mph74%30.27 "HgN/A
4:20 pm30 °FPassing clouds.6 mph69%30.24 "HgN/A
3:50 pm30 °FPassing clouds.8 mph69%30.24 "HgN/A
3:20 pm30 °FScattered clouds.10 mph69%30.24 "HgN/A
2:50 pm32 °FScattered clouds.10 mph69%30.24 "HgN/A
2:20 pm30 °FScattered clouds.8 mph75%30.24 "HgN/A
1:50 pm32 °FScattered clouds.8 mph75%30.24 "HgN/A
1:20 pm30 °FPassing clouds.8 mph80%30.24 "HgN/A
12:50 pm30 °FPassing clouds.6 mph80%30.24 "HgN/A
12:20 pm30 °FScattered clouds.5 mph86%30.24 "HgN/A
Weather by CustomWeather, © 2017

See weather overviewHow to use our weather pages